[ hide orbit diagram ]
For accurate long-term ephemerides, please instead use our Horizons system.This orbit viewer was implemented using two-body methods, and hence should not be used for determining accurate long-term trajectories (over several years or decades) or planetary encounter circumstances.
[ revert to old Java-based viewer ]
Orbital Elements at Epoch 2458600.5 (2019-Apr-27.0) TDB
Reference: JPL 11 (heliocentric ecliptic J2000)
Element | Value | Uncertainty (1-sigma) | Units |
e | .05019636533049646 | 7.9545e-08 | |
a | 1.878919706833173 | 1.1798e-08 | au |
q | 1.784604766802306 | 1.5305e-07 | au |
i | 19.5971342029811 | 1.0659e-05 | deg |
node | 331.4417380609942 | 1.9854e-05 | deg |
peri | 242.5705260678381 | 0.00010632 | deg |
M | 286.8241667850987 | 0.0001108 | deg |
tp | 2458791.716750920303 (2019-Nov-04.21675092) | 0.00028999 | TDB |
period | 940.7208269039718 2.58 | 8.8607e-06 2.426e-08 | d yr |
n | .3826852661323598 | 3.6045e-09 | deg/d |
Q | 1.97323464686404 | 1.2391e-08 | au |
|
| | Orbit Determination Parameters
Additional Information
|
[ show covariance matrix ]
Physical Parameter Table
Parameter |
Symbol |
Value |
Units |
Sigma |
Reference |
Notes |
absolute magnitude |
H |
17.9 |
|
n/a |
MPO349058 |
|
|
382622 (2002 PF88) Discovered 2002-Aug-12 by LINEAR at Socorro |
Reference: | Last Updated: 2014-01-21 |
|
|